Temp
15 13 13 14 13 15 15 15 14 15 17 17 16 16 14 12 12 11 11 11 13 14 11 9 9 8 9 9 9 9 9 9 8 8 8 10 10 10 11 11 11 12 12 12
14 14 15 15 14 14 14 14 14 15 17 16 16 16 15 11 12 12 12 10 11 13 14 10 10 9 9 9 9 8 9 9 8 8 8 9 9 9 10 11 11 12 12 13
13 15 16 15 15 15 14 14 14 15 16 17 17 16 16 13 13 13 13 12 11 12 12 9 9 9 9 9 8 8 9 9 8 8 9 9 9 10 10 11 11 11 11 11
13 16 15 15 15 15 14 15 16 16 15 15 17 14 15 15 13 12 13 13 12 13 13 12 9 10 10 11 10 9 9 9 9 8 9 9 9 9 10 11 11 11 11 11
13 13 15 14 15 15 15 16 16 16 15 16 16 14 14 15 14 13 12 13 12 13 13 13 13 14 14 11 11 11 10 9 9 9 8 9 9 9 10 11 11 11 11 11
14 16 15 16 17 16 17 17 17 14 14 14 16 15 14 13 16 16 14 14 13 13 14 14 15 14 14 13 13 12 12 11 10 9 9 9 9 9 10 10 11 12 13 13
14 15 16 17 16 16 16 15 12 13 12 13 15 14 16 17 16 16 15 15 16 15 14 14 14 14 14 14 13 12 12 12 11 11 11 11 12 12 12 12 12 12 12 13
13 13 15 16 16 16 14 14 11 14 12 13 15 14 16 17 17 19 19 19 17 15 15 16 15 15 15 14 14 13 12 12 12 12 12 12 12 12 12 12 12 12 13 13
12 13 16 17 17 17 15 13 16 14 13 11 13 15 17 18 18 16 17 16 16 16 15 17 17 15 15 14 14 14 13 13 12 12 12 12 11 11 11 12 12 12 12 12
13 13 15 17 17 17 17 16 14 12 13 13 13 14 15 17 18 17 14 15 16 16 15 15 16 16 16 15 14 14 14 13 13 12 12 12 12 11 12 12 12 12 12 11
12 13 13 16 15 16 15 15 15 15 12 13 12 13 14 16 17 17 15 16 18 17 17 17 18 17 17 16 15 14 14 14 13 13 12 12 12 12 12 12 12 12 12 12
10 11 12 14 16 17 17 17 16 13 14 12 11 15 17 15 15 15 17 19 19 20 20 20 19 19 18 17 16 16 16 15 14 14 15 14 12 12 13 13 13 13 13 12
9 9 10 13 14 16 15 16 16 14 12 12 12 13 16 15 16 17 18 20 19 19 18 19 18 18 19 18 17 17 16 16 16 15 14 14 13 13 13 13 13 13 12 12
8 8 9 11 14 15 15 16 16 15 12 13 15 15 16 17 16 17 19 20 20 21 20 20 19 20 20 19 18 18 18 17 16 15 15 14 14 14 14 13 13 12 12 10
8 7 10 12 14 15 15 14 15 15 14 14 15 16 17 17 16 17 21 21 21 20 20 20 20 20 20 19 19 18 18 18 17 16 14 14 13 13 12 12 12 12 11 10
6 7 9 11 13 15 15 14 14 14 14 16 16 16 16 17 19 17 20 20 20 21 22 20 20 20 21 20 20 19 19 17 15 15 14 13 12 12 12 12 10 10 10 10
4 6 6 9 12 13 11 12 15 15 13 14 14 16 16 16 15 16 19 21 20 21 22 22 21 21 21 20 20 19 19 19 16 14 13 13 13 12 12 11 10 10 9 9
5 4 5 7 9 10 12 13 14 15 15 15 16 16 16 16 20 21 21 21 22 20 21 21 21 21 20 19 18 18 18 17 15 14 13 13 11 10 9 9 9 9 9 8
7 5 6 7 8 10 12 12 13 13 14 16 15 16 16 18 17 18 21 22 22 22 21 20 20 20 20 19 17 16 15 14 14 12 10 9 9 9 10 9 9 8 8 7
6 7 6 6 8 8 10 13 15 16 12 15 15 15 15 15 14 14 21 21 22 21 20 20 20 20 19 18 16 14 13 12 11 10 9 9 8 8 8 8 7 7 6 6
6 5 6 7 8 8 10 12 14 10 10 15 17 17 16 15 16 21 20 21 20 20 19 19 19 19 17 16 14 13 11 10 9 8 7 7 7 7 7 6 6 5 5 4
6 6 6 6 7 8 11 12 13 11 15 14 18 19 17 19 20 21 20 19 18 19 18 18 17 15 14 12 11 10 10 8 7 7 6 6 5 5 5 5 4 3 3 2
8 7 7 7 6 8 11 12 13 12 12 14 15 16 19 18 18 18 17 16 16 17 16 14 14 12 10 9 9 9 8 6 6 5 4 4 4 4 3 3 3 2 1 1
8 8 7 7 9 9 10 12 12 13 14 14 15 16 16 15 17 14 14 13 13 13 12 11 11 10 8 7 7 6 6 4 3 3 3 3 3 2 2 1 1 1 -0 -1
8 7 8 8 9 10 13 13 14 13 14 13 14 16 16 16 15 15 14 12 12 12 11 10 9 8 6 5 5 5 5 5 4 4 3 2 2 1 1 0 -1 -2 -2 -3
8 8 7 7 11 11 12 14 14 13 14 14 13 15 15 14 14 14 11 10 10 10 8 8 8 7 5 5 4 3 3 3 3 2 1 0 -1 -2 -2 -3 -3 -4 -5 -6
Height
1468 1476 1472 1470 1474 1476 1479 1482 1487 1474 1461 1471 1464 1460 1455 1453 1456 1457 1459 1459 1455 1455 1457 1462 1463 1466 1468 1470 1472 1475 1477 1481 1485 1490 1496 1504 1507 1511 1515 1520 1524 1527 1530 1533
1469 1465 1463 1467 1471 1475 1479 1482 1481 1471 1461 1466 1459 1457 1451 1450 1449 1450 1451 1456 1456 1455 1457 1459 1461 1466 1467 1469 1470 1474 1478 1482 1487 1492 1498 1504 1507 1512 1517 1519 1521 1525 1530 1533
1463 1457 1453 1461 1467 1473 1475 1478 1474 1477 1463 1460 1459 1461 1453 1447 1447 1448 1449 1452 1457 1456 1456 1460 1463 1463 1466 1466 1470 1474 1477 1481 1487 1492 1497 1503 1508 1512 1515 1517 1520 1524 1528 1534
1462 1452 1455 1459 1462 1465 1475 1461 1465 1468 1473 1475 1458 1481 1457 1448 1445 1445 1444 1446 1449 1452 1456 1456 1461 1461 1463 1464 1469 1472 1476 1481 1484 1490 1494 1499 1504 1508 1510 1514 1519 1524 1526 1529
1452 1450 1452 1458 1451 1457 1461 1455 1462 1463 1468 1466 1463 1473 1456 1446 1447 1442 1440 1440 1443 1447 1450 1453 1454 1457 1460 1463 1466 1469 1473 1477 1482 1487 1492 1496 1500 1505 1508 1512 1514 1519 1523 1525
1446 1442 1444 1443 1443 1450 1450 1456 1457 1461 1466 1477 1462 1469 1455 1451 1436 1430 1432 1434 1438 1441 1445 1450 1454 1456 1459 1462 1465 1468 1470 1474 1479 1483 1487 1490 1495 1500 1504 1507 1510 1514 1518 1519
1446 1442 1441 1440 1445 1446 1452 1461 1483 1482 1483 1477 1456 1465 1448 1431 1427 1422 1423 1426 1430 1434 1440 1445 1449 1453 1456 1459 1463 1467 1471 1474 1477 1481 1485 1487 1491 1495 1499 1503 1506 1509 1510 1512
1450 1454 1441 1436 1437 1442 1449 1455 1477 1475 1482 1473 1455 1461 1441 1420 1415 1414 1417 1419 1425 1430 1434 1439 1442 1448 1453 1456 1460 1464 1467 1471 1474 1477 1480 1484 1487 1490 1494 1498 1501 1503 1505 1507
1447 1444 1426 1423 1428 1435 1442 1452 1440 1458 1462 1474 1461 1446 1427 1417 1415 1413 1414 1421 1423 1425 1428 1432 1438 1443 1448 1452 1455 1458 1462 1466 1470 1473 1478 1480 1484 1486 1489 1492 1495 1497 1500 1503
1433 1441 1422 1419 1422 1422 1426 1431 1452 1457 1469 1471 1459 1452 1446 1427 1419 1416 1418 1418 1419 1421 1426 1430 1434 1437 1442 1446 1451 1456 1460 1463 1468 1472 1475 1477 1479 1482 1485 1487 1488 1490 1494 1496
1439 1437 1432 1420 1422 1423 1430 1432 1432 1435 1451 1460 1466 1456 1426 1421 1416 1414 1415 1414 1415 1417 1420 1424 1427 1431 1436 1443 1446 1450 1454 1457 1463 1467 1470 1472 1474 1476 1479 1480 1482 1483 1486 1486
1444 1436 1433 1421 1414 1411 1412 1416 1422 1441 1445 1449 1451 1438 1411 1412 1414 1413 1411 1411 1413 1415 1416 1419 1423 1427 1431 1434 1438 1441 1445 1449 1453 1461 1463 1463 1468 1470 1472 1474 1475 1476 1478 1479
1454 1443 1440 1428 1420 1407 1415 1413 1415 1422 1429 1438 1449 1437 1408 1409 1409 1408 1410 1410 1412 1412 1415 1418 1421 1424 1427 1428 1431 1434 1438 1441 1445 1451 1453 1456 1458 1463 1463 1465 1467 1470 1471 1470
1452 1443 1438 1429 1417 1411 1414 1411 1411 1415 1432 1429 1418 1419 1410 1407 1407 1405 1405 1406 1408 1410 1412 1414 1417 1420 1422 1424 1426 1428 1430 1432 1436 1442 1445 1446 1449 1453 1456 1459 1460 1461 1462 1463
1450 1440 1425 1412 1409 1406 1407 1408 1408 1412 1413 1416 1412 1411 1403 1400 1400 1399 1399 1400 1402 1406 1409 1411 1413 1416 1418 1421 1422 1423 1426 1427 1429 1433 1436 1440 1443 1448 1450 1452 1453 1454 1455 1456
1450 1437 1425 1407 1399 1399 1400 1402 1402 1404 1408 1400 1403 1398 1393 1390 1392 1394 1394 1396 1397 1398 1401 1404 1408 1411 1413 1415 1417 1419 1420 1423 1425 1428 1431 1436 1439 1442 1445 1446 1447 1449 1449 1452
1449 1446 1437 1411 1401 1401 1413 1395 1393 1393 1402 1407 1406 1394 1386 1389 1388 1388 1388 1389 1390 1393 1395 1398 1402 1404 1407 1410 1413 1415 1417 1419 1421 1424 1428 1431 1433 1436 1437 1439 1442 1444 1446 1447
1440 1446 1438 1422 1408 1416 1391 1388 1391 1392 1392 1395 1394 1386 1381 1379 1379 1380 1381 1382 1385 1388 1391 1393 1397 1400 1403 1406 1409 1412 1414 1417 1420 1422 1425 1427 1429 1432 1434 1436 1439 1441 1442 1445
1422 1435 1430 1417 1410 1400 1389 1386 1390 1395 1388 1385 1386 1376 1374 1374 1376 1374 1374 1377 1379 1382 1385 1390 1393 1397 1401 1404 1407 1410 1413 1416 1419 1421 1424 1426 1429 1431 1433 1435 1436 1438 1440 1441
1417 1422 1429 1423 1413 1412 1391 1376 1375 1382 1394 1372 1370 1372 1376 1373 1383 1375 1371 1373 1375 1378 1382 1386 1390 1394 1398 1401 1404 1408 1411 1414 1417 1420 1423 1425 1427 1430 1432 1433 1434 1436 1438 1440
1419 1421 1420 1417 1411 1401 1380 1374 1377 1403 1396 1368 1367 1369 1371 1373 1369 1367 1369 1371 1374 1376 1380 1384 1389 1393 1396 1400 1403 1406 1410 1413 1417 1420 1422 1424 1426 1428 1430 1432 1433 1436 1438 1441
1413 1413 1416 1408 1408 1406 1381 1375 1382 1384 1376 1371 1370 1371 1368 1366 1365 1366 1368 1371 1373 1376 1380 1384 1388 1393 1397 1401 1404 1407 1410 1413 1415 1418 1421 1424 1425 1427 1430 1432 1435 1437 1439 1442
1406 1403 1406 1404 1407 1392 1381 1377 1378 1378 1377 1370 1369 1369 1370 1365 1363 1363 1365 1370 1374 1376 1380 1386 1390 1393 1399 1404 1406 1408 1411 1414 1416 1419 1421 1424 1426 1428 1431 1434 1436 1439 1441 1443
1393 1394 1398 1397 1389 1387 1382 1376 1375 1376 1375 1374 1370 1367 1364 1363 1360 1363 1367 1369 1374 1379 1384 1388 1391 1395 1400 1405 1408 1410 1412 1415 1418 1422 1425 1426 1428 1429 1432 1435 1437 1439 1441 1444
1393 1392 1389 1386 1381 1379 1373 1372 1372 1373 1373 1378 1375 1368 1366 1366 1365 1366 1370 1375 1378 1381 1386 1390 1390 1394 1401 1405 1408 1412 1414 1417 1419 1422 1426 1428 1430 1432 1433 1435 1437 1438 1440 1442
1386 1387 1389 1386 1377 1379 1372 1371 1369 1367 1368 1370 1371 1370 1367 1370 1371 1369 1373 1377 1380 1383 1387 1390 1391 1395 1400 1405 1410 1413 1417 1419 1419 1422 1425 1428 1429 1431 1432 1433 1435 1438 1439 1441
Wind_Speed
7 4 12 14 9 3 3 2 4 14 13 3 11 16 9 13 16 14 20 18 15 9 5 8 9 11 15 16 14 18 24 30 35 40 39 33 38 36 35 33 30 26 24 25
3 16 6 7 7 6 5 5 12 11 9 4 9 11 7 9 12 21 22 25 25 16 12 11 12 16 17 21 20 18 19 27 32 39 41 38 42 40 37 31 32 31 31 31
10 6 12 12 7 7 8 7 10 7 11 5 4 7 5 6 5 15 19 23 24 26 22 21 22 21 21 21 23 20 20 21 29 40 41 43 40 39 37 38 37 37 31 25
8 14 4 5 12 10 11 10 10 10 6 4 1 5 6 6 11 8 20 25 27 28 25 20 27 25 25 24 25 24 24 26 28 34 40 44 43 42 44 42 39 39 35 30
9 8 17 13 14 10 10 7 9 9 11 2 2 2 6 2 6 11 14 26 32 33 30 27 24 20 20 24 26 26 27 30 30 32 35 37 40 45 45 39 34 45 41 39
10 5 9 14 15 12 8 2 1 2 2 3 4 5 6 5 8 7 13 25 31 34 33 29 23 22 23 26 27 26 26 29 33 36 39 39 42 45 46 40 39 40 43 40
3 13 4 2 6 6 5 3 2 3 1 7 5 4 10 7 7 9 15 27 36 34 34 34 32 31 31 33 32 31 32 33 36 37 38 39 38 38 38 37 36 38 40 40
12 8 14 7 11 5 7 9 5 6 4 5 0 5 6 7 11 20 27 35 32 33 35 36 36 35 36 37 37 37 38 38 38 38 38 37 37 38 39 38 37 38 38 38
6 8 4 11 7 13 5 5 11 5 1 3 4 6 9 6 4 6 17 19 29 36 38 38 38 38 37 39 41 41 40 38 39 39 38 39 40 42 43 41 41 40 38 38
4 3 7 6 9 14 11 6 2 2 7 5 4 4 5 7 6 5 6 18 29 34 36 37 39 41 40 39 40 42 42 41 40 41 41 41 42 43 44 43 42 41 41 41
6 6 5 2 6 10 4 6 3 5 5 6 2 6 8 10 9 7 9 24 31 33 34 38 43 42 41 40 41 42 43 45 44 44 44 46 46 44 42 44 45 44 42 42
4 5 12 24 9 3 10 12 10 5 4 3 4 9 4 8 7 8 16 25 29 29 31 33 38 40 40 40 44 45 44 45 46 42 40 49 49 48 47 45 45 43 46 45
10 4 4 7 9 17 5 4 4 2 4 9 7 6 3 5 4 8 10 17 20 29 31 32 33 37 35 37 40 43 47 49 47 45 49 51 49 48 48 46 46 47 48 48
10 5 12 14 6 5 5 6 1 7 6 5 12 5 7 7 7 8 12 11 22 26 29 31 31 32 31 32 36 37 37 40 44 47 49 51 50 48 49 48 49 49 48 42
6 7 14 18 17 5 5 5 3 2 9 10 8 13 14 12 9 12 14 12 17 23 26 29 29 29 28 29 30 32 28 29 31 37 41 46 45 40 41 40 39 38 37 34
3 5 15 6 13 17 15 9 9 4 9 12 8 14 7 16 22 12 20 19 19 24 29 30 29 28 27 26 25 27 28 31 34 36 37 36 40 40 39 37 33 32 27 25
0 5 6 5 5 5 3 16 13 8 8 9 10 10 7 8 9 15 25 21 24 32 31 30 32 30 28 30 28 28 28 29 31 32 32 32 33 35 33 29 22 20 19 19
8 3 3 4 1 4 8 9 15 18 18 17 12 7 9 10 26 28 24 18 25 29 31 31 31 28 27 27 29 28 26 26 25 25 26 27 25 22 19 13 15 17 19 20
10 5 4 3 3 4 4 5 9 12 16 23 12 8 5 14 7 8 22 21 23 28 30 32 25 19 17 22 23 20 18 18 18 17 15 12 11 12 14 16 19 20 21 20
13 9 4 1 3 8 6 10 10 3 11 9 7 8 11 8 4 5 15 20 23 23 26 27 19 14 15 16 17 17 16 15 12 9 9 10 12 14 18 19 18 17 17 18
3 3 6 7 6 6 6 7 1 6 7 8 8 16 7 4 9 10 13 17 17 21 24 20 16 15 16 18 17 16 14 11 9 9 10 11 14 15 15 14 15 15 16 18
5 5 2 2 4 5 2 4 1 1 18 10 4 15 17 16 9 11 14 20 22 24 21 18 17 17 16 15 13 12 10 8 6 5 8 9 10 11 12 13 14 15 15 15
6 5 4 5 3 27 18 5 4 7 10 12 5 9 20 15 10 10 17 20 22 22 21 18 16 17 14 11 8 6 5 6 7 9 9 9 10 12 13 13 13 12 11 12
4 5 4 4 9 20 33 21 15 8 19 24 15 8 4 7 10 9 15 18 19 17 17 17 17 16 15 11 9 6 9 8 8 4 6 9 11 13 12 11 9 10 10 8
5 4 6 4 5 15 24 21 22 16 12 19 16 5 5 1 5 8 13 15 16 17 17 18 19 19 18 16 15 13 10 6 4 5 9 12 12 12 13 13 13 12 13 12
5 4 3 5 9 7 15 22 16 11 17 15 12 4 4 4 5 12 17 20 20 19 19 20 20 20 20 19 19 17 14 11 12 16 17 17 16 16 16 15 14 10 5 2
Wind_Direction
182 172 214 201 195 124 148 276 281 280 278 217 262 256 238 201 215 207 195 202 222 219 184 175 199 200 195 204 189 197 196 191 182 176 172 177 175 175 181 186 179 181 186 193
218 234 204 186 192 204 226 245 267 286 272 158 268 253 283 190 220 217 201 199 199 203 211 195 184 205 200 197 193 189 189 196 193 184 177 181 182 187 188 187 193 197 209 210
204 223 200 181 199 207 233 221 254 231 305 244 253 313 256 265 261 214 220 220 216 197 198 196 198 201 198 195 194 193 187 190 190 187 184 188 188 192 194 200 202 206 206 215
230 240 268 182 216 183 242 210 246 264 279 245 114 269 283 234 222 209 224 217 219 207 210 207 201 197 194 190 194 195 190 192 193 194 197 201 204 200 199 200 207 206 215 231
224 184 210 221 224 182 232 206 225 254 271 164 300 319 268 144 232 227 218 223 219 216 209 209 206 194 188 191 188 186 191 194 194 195 200 201 203 205 205 211 220 212 222 231
223 216 184 212 227 190 229 289 269 39 173 264 211 175 273 192 213 227 214 216 221 216 213 212 209 201 196 188 187 184 186 191 195 202 206 207 209 209 213 217 217 216 220 226
223 240 279 198 215 159 156 135 306 297 345 244 223 166 239 278 232 214 198 210 221 224 216 214 209 205 199 197 195 194 194 195 196 198 199 199 200 201 206 210 215 221 228 234
210 263 205 202 209 171 176 169 174 217 192 253 251 239 250 247 281 221 213 215 215 220 222 220 218 212 208 205 204 204 203 202 202 203 206 208 210 213 218 224 230 235 239 242
185 234 232 215 177 190 211 185 205 159 28 110 229 288 310 291 301 190 201 196 210 220 224 224 224 222 218 213 213 214 213 212 213 214 216 219 222 224 228 233 237 239 242 247
254 255 231 227 184 213 205 166 105 356 189 226 248 245 227 296 247 143 174 199 214 219 225 227 228 229 225 225 222 222 223 223 223 222 224 227 230 234 238 240 241 245 249 251
314 236 282 248 198 189 165 213 229 154 152 190 212 254 212 234 225 209 202 205 212 220 225 229 232 235 235 229 229 229 230 231 229 230 233 235 237 239 243 246 249 251 254 258
294 277 233 243 260 251 216 210 182 184 208 226 193 235 240 228 248 218 219 211 214 217 221 227 231 235 238 241 235 233 234 235 235 237 244 242 244 247 250 252 255 258 259 259
355 320 263 284 259 255 203 209 199 143 131 197 189 248 223 272 248 210 221 241 224 218 219 222 227 229 235 241 244 243 240 239 239 238 242 242 242 246 251 255 257 257 261 258
8 236 227 242 270 168 184 187 212 194 210 168 225 207 257 249 220 249 238 248 220 213 214 216 219 224 229 236 241 243 247 248 245 241 242 246 248 250 254 259 262 261 260 256
10 269 260 243 241 196 184 179 207 237 252 210 195 221 215 227 240 235 250 260 234 227 209 211 210 210 223 229 236 239 241 247 246 245 243 245 249 249 248 254 257 256 257 256
4 286 307 251 219 222 223 215 226 263 309 248 243 229 211 228 234 241 250 254 224 219 218 216 210 212 221 225 226 229 234 235 238 242 244 242 243 244 245 249 256 257 254 246
57 313 321 263 177 117 332 233 240 239 262 273 227 233 196 229 221 229 244 239 231 218 216 215 216 220 226 224 225 228 233 237 237 237 240 243 244 246 252 257 261 248 241 231
180 227 249 264 104 181 243 181 231 244 251 255 267 242 217 212 234 240 240 231 228 227 214 209 212 220 223 222 224 230 232 234 234 235 237 239 244 251 263 256 245 235 217 221
186 145 273 262 214 299 250 215 194 211 250 246 226 241 255 235 219 255 243 231 227 233 220 213 214 219 221 225 231 232 229 228 228 231 236 250 260 260 239 237 224 217 221 217
188 195 213 274 270 210 234 230 179 60 275 251 178 250 234 141 147 242 217 218 219 224 210 202 201 209 219 221 222 221 221 223 224 229 246 241 245 241 233 224 219 212 208 206
162 136 220 236 235 287 257 300 317 184 248 263 245 249 192 192 208 228 216 208 209 198 192 191 199 206 210 209 207 207 210 213 224 241 256 232 225 224 221 215 210 205 197 189
183 169 214 95 229 250 284 42 172 276 247 261 242 269 221 215 218 215 213 202 188 182 182 189 190 187 188 192 195 199 208 224 238 230 212 203 205 206 210 201 189 186 194 200
226 190 181 158 276 290 297 264 281 321 342 339 332 225 232 235 219 216 207 191 185 182 178 174 173 169 169 177 187 207 194 166 175 174 180 191 188 178 177 182 186 197 210 219
279 171 204 127 255 252 254 275 278 275 295 317 319 341 22 222 191 181 174 167 168 162 161 162 163 162 161 163 158 148 148 156 144 144 171 172 173 170 172 179 188 196 190 191
212 189 204 254 287 285 280 274 272 256 229 245 289 321 352 46 116 156 154 159 158 160 166 172 167 160 157 163 159 155 156 168 167 159 175 177 180 182 182 180 170 178 184 195
190 212 192 230 257 243 279 301 288 296 232 237 230 226 72 313 177 165 152 160 165 165 169 169 163 166 159 164 159 157 166 178 173 167 167 165 165 160 165 177 187 197 211 213